User: anonymous   Login
Location: Hartman Creek State Park
(44.3257°N, 89.2134°W)
Time: 16:59:52
(UTC-06:00)
Language:

Cosmos 2263 Rocket - Orbit

View from above orbital plane
View from above orbital plane
View from above satellite
View from above satellite

Ground track
Ground track

The orbit data is extracted from the following two-line orbital elements,

1 22803U 93059B   14330.67448503 -.00000122  00000-0 -36976-4 0  4299
2 22803 070.9917 056.4532 0017432 359.3826 000.7273 14.16685796 96061
Epoch (UTC): 26 November 2014 16:11:15
Eccentricity: 0.0017432
inclination: 70.9917°
perigee height: 824 km
apogee height: 849 km
right ascension of ascending node: 56.4532°
argument of perigee: 359.3826°
revolutions per day: 14.16685796
mean anomaly at epoch: 0.7273°
orbit number at epoch: 9606

The dashed part of the orbit path shows where the satellite is in the earth's shadow,  

DLR